Date String (YYYY-MM-DD hh:mm:ss) UTC,Instrument flags,absolute air pressure of the measurement (hPa),sample flow rate (lpm),inlet stack bypass flow (lpm),air temperature of the measurement (°C),ambient temperature measured by the external sensor (°C),aerosol sample conditioner tube jacket temperature (°C),OPC LED temperature (°C),internal box temperature (°C),relative humidity of the measurement (%),span deviation,mass concentration of particles derived from Lorenz-Mie calculation of OPC scattering (μg/m³),mass concentration of particles derived from Lorenz-Mie calculation of OPC scattering (μg/m³),mass concentration of particles derived from Lorenz-Mie calculation of OPC scattering (μg/m³)
DateTimeUTC,F1_M11,P_M11,Q1_M11,Q2_M11,T1_M11,T2_M11,T3_M11,T4_M11,T5_M11,U1_M11,ZSPAN_M11,X2_M11,X0_M11,X1_M11
2024-04-05 23:00:00,SystemResetWarning,0813.9,5.01,000.00,025.3,023.8,000.0,034.0,027.0,008.1,0000.0,0003.43,0017.25,0001.35
2024-04-05 23:01:00,SystemResetWarning,0813.9,5.00,000.00,025.3,024.0,000.0,034.0,027.0,007.5,0000.0,0003.44,0018.27,0001.34
2024-04-05 23:02:00,SystemResetWarning,0813.9,5.00,000.00,025.3,024.2,000.0,033.9,027.1,007.0,0000.0,0003.41,0018.44,0001.33
2024-04-05 23:03:00,SystemResetWarning,0814.0,5.00,000.00,025.4,024.4,000.0,033.9,027.2,007.2,0000.0,0003.46,0019.12,0001.33
2024-04-05 23:04:00,SystemResetWarning,0814.0,5.00,000.00,025.4,024.5,000.0,033.9,027.2,007.1,0000.0,0003.45,0018.35,0001.33
2024-04-05 23:05:00,SystemResetWarning,0813.9,5.00,000.00,025.5,024.6,000.0,033.9,027.3,007.1,0000.0,0003.46,0017.81,0001.34
2024-04-05 23:06:00,SystemResetWarning,0814.0,5.00,000.00,025.5,024.7,000.0,033.9,027.3,007.2,0000.0,0003.50,0017.86,0001.34
2024-04-05 23:07:00,SystemResetWarning,0814.0,5.00,000.00,025.5,024.8,000.0,033.9,027.4,007.4,0000.0,0003.52,0018.64,0001.33
2024-04-05 23:08:00,SystemResetWarning,0813.9,4.99,000.00,025.6,024.8,000.0,034.0,027.4,006.9,0000.0,0003.49,0020.65,0001.31
2024-04-05 23:09:00,SystemResetWarning,0814.1,5.00,000.00,025.6,024.9,000.0,034.0,027.4,006.5,0000.0,0003.50,0021.65,0001.32
2024-04-05 23:10:00,SystemResetWarning,0814.1,5.01,000.00,025.6,024.9,000.0,034.0,027.5,006.6,0000.0,0003.49,0021.24,0001.31
2024-04-05 23:11:00,SystemResetWarning,0814.1,5.00,000.00,025.7,025.0,000.0,034.0,027.5,006.6,0000.0,0003.51,0021.11,0001.32
2024-04-05 23:12:00,SystemResetWarning,0814.1,4.99,000.00,025.7,025.0,000.0,034.0,027.5,006.5,0000.0,0003.46,0020.23,0001.32
2024-04-05 23:13:00,SystemResetWarning,0814.1,4.99,000.00,025.7,025.0,000.0,034.0,027.6,006.8,0000.0,0003.44,0019.90,0001.33
2024-04-05 23:14:00,SystemResetWarning,0814.1,5.00,000.00,025.8,025.1,000.0,034.1,027.6,007.3,0000.0,0003.39,0020.52,0001.33
2024-04-05 23:15:00,SystemResetWarning,0814.1,5.00,000.00,025.8,025.1,000.0,034.1,027.6,007.2,0000.0,0003.39,0021.19,0001.32
2024-04-05 23:16:00,SystemResetWarning,0814.2,5.00,000.00,025.8,025.1,000.0,034.1,027.7,007.1,0000.0,0003.37,0021.03,0001.33
2024-04-05 23:17:00,SystemResetWarning,0814.1,5.00,000.00,025.8,025.2,000.0,034.1,027.7,007.2,0000.0,0003.37,0020.40,0001.34
2024-04-05 23:18:00,SystemResetWarning,0814.1,5.00,000.00,025.9,025.2,000.0,034.2,027.7,006.7,0000.0,0003.33,0020.54,0001.36
2024-04-05 23:19:00,SystemResetWarning,0814.0,5.00,000.00,025.9,025.2,000.0,034.2,027.7,006.8,0000.0,0003.32,0019.50,0001.37
2024-04-05 23:20:00,SystemResetWarning,0814.1,5.00,000.00,025.9,025.2,000.0,034.2,027.7,006.5,0000.0,0003.26,0019.62,0001.36
2024-04-05 23:21:00,SystemResetWarning,0814.0,5.00,000.00,025.9,025.2,000.0,034.2,027.8,006.9,0000.0,0003.21,0019.21,0001.35
2024-04-05 23:22:00,SystemResetWarning,0814.0,4.99,000.00,026.0,025.3,000.0,034.3,027.8,006.8,0000.0,0003.23,0018.81,0001.36
2024-04-05 23:23:00,SystemResetWarning,0814.0,5.00,000.00,026.0,025.3,000.0,034.3,027.8,006.4,0000.0,0003.22,0018.08,0001.37
2024-04-05 23:24:00,SystemResetWarning,0813.9,5.00,000.00,026.0,025.3,000.0,034.3,027.8,006.4,0000.0,0003.23,0017.50,0001.38
2024-04-05 23:25:00,SystemResetWarning,0813.9,5.00,000.00,026.0,025.3,000.0,034.3,027.8,006.7,0000.0,0003.24,0015.81,0001.38
2024-04-05 23:26:00,SystemResetWarning,0813.9,5.00,000.00,026.0,025.3,000.0,034.3,027.9,006.4,0000.0,0003.18,0014.38,0001.39
2024-04-05 23:27:00,SystemResetWarning,0813.9,5.00,000.00,026.1,025.4,000.0,034.4,027.9,006.5,0000.0,0003.20,0013.86,0001.40
2024-04-05 23:28:00,SystemResetWarning,0813.9,5.00,000.00,026.1,025.4,000.0,034.4,027.9,006.8,0000.0,0003.19,0013.56,0001.39
2024-04-05 23:29:00,SystemResetWarning,0813.9,5.00,000.00,026.1,025.4,000.0,034.4,027.9,006.8,0000.0,0003.20,0014.24,0001.38
2024-04-05 23:30:00,SystemResetWarning,0813.9,5.00,000.00,026.1,025.4,000.0,034.4,027.9,007.1,0000.0,0003.25,0013.67,0001.37
2024-04-05 23:31:00,SystemResetWarning,0813.9,5.00,000.00,026.1,025.4,000.0,034.5,028.0,007.3,0000.0,0003.28,0013.10,0001.37
2024-04-05 23:32:00,SystemResetWarning,0813.8,5.00,000.00,026.2,025.4,000.0,034.5,028.0,007.0,0000.0,0003.31,0012.42,0001.38
2024-04-05 23:33:00,SystemResetWarning,0813.9,5.00,000.00,026.2,025.4,000.0,034.5,028.0,007.0,0000.0,0003.37,0013.06,0001.39
2024-04-05 23:34:00,SystemResetWarning,0813.8,5.00,000.00,026.2,025.4,000.0,034.5,028.0,007.2,0000.0,0003.37,0014.53,0001.37
2024-04-05 23:35:00,SystemResetWarning,0813.7,5.00,000.00,026.2,025.4,000.0,034.5,028.0,006.8,0000.0,0003.43,0016.64,0001.36
2024-04-05 23:36:00,SystemResetWarning,0813.8,5.01,000.00,026.2,025.4,000.0,034.6,028.0,006.8,0000.0,0003.49,0017.87,0001.35
2024-04-05 23:37:00,SystemResetWarning,0813.7,5.00,000.00,026.2,025.4,000.0,034.6,028.0,007.1,0000.0,0003.51,0017.54,0001.35
2024-04-05 23:38:00,SystemResetWarning,0813.6,5.00,000.00,026.2,025.4,000.0,034.6,028.0,006.6,0000.0,0003.51,0017.42,0001.36
2024-04-05 23:39:00,SystemResetWarning,0813.7,5.00,000.00,026.2,025.4,000.0,034.6,028.0,006.6,0000.0,0003.49,0018.53,0001.34
2024-04-05 23:40:00,SystemResetWarning,0813.8,5.00,000.00,026.2,025.4,000.0,034.6,028.0,006.7,0000.0,0003.48,0018.38,0001.35
2024-04-05 23:41:00,SystemResetWarning,0813.8,5.00,000.00,026.2,025.5,000.0,034.6,028.0,006.9,0000.0,0003.49,0018.61,0001.36
2024-04-05 23:42:00,SystemResetWarning,0813.9,4.99,000.00,026.3,025.5,000.0,034.7,028.0,007.1,0000.0,0003.52,0019.22,0001.40
2024-04-05 23:43:00,SystemResetWarning,0813.8,4.99,000.00,026.2,024.5,000.0,034.7,027.5,007.1,0000.0,0003.52,0019.61,0001.40
2024-04-05 23:44:00,SystemResetWarning,0813.7,5.01,000.00,025.8,022.7,000.0,034.7,026.6,007.1,0000.0,0003.51,0020.13,0001.41
2024-04-05 23:45:00,SystemResetWarning,0813.6,5.01,000.00,025.5,022.8,000.0,034.7,026.4,007.1,0000.0,0003.52,0019.73,0001.43
2024-04-05 23:46:00,SystemResetWarning,0813.7,4.99,000.00,025.5,023.1,000.0,034.5,026.7,007.3,0000.0,0003.50,0018.96,0001.44
2024-04-05 23:47:00,SystemResetWarning,0813.7,4.99,000.00,025.5,023.4,000.0,034.4,026.9,007.6,0000.0,0003.46,0018.36,0001.44
2024-04-05 23:48:00,SystemResetWarning,0813.6,5.00,000.00,025.5,023.7,000.0,034.3,027.0,007.3,0000.0,0003.50,0019.09,0001.45
2024-04-05 23:49:00,SystemResetWarning,0813.7,5.00,000.00,025.5,024.0,000.0,034.3,027.1,007.1,0000.0,0003.56,0020.44,0001.45
2024-04-05 23:50:00,SystemResetWarning,0813.7,5.00,000.00,025.5,024.2,000.0,034.2,027.2,006.9,0000.0,0003.64,0020.66,0001.47
2024-04-05 23:51:00,SystemResetWarning,0813.8,5.01,000.00,025.5,024.3,000.0,034.2,027.3,006.7,0000.0,0003.66,0021.58,0001.49
2024-04-05 23:52:00,SystemResetWarning,0813.9,5.00,000.00,025.6,024.5,000.0,034.2,027.3,006.7,0000.0,0003.69,0022.85,0001.49
2024-04-05 23:53:00,SystemResetWarning,0813.8,4.99,000.00,025.6,024.6,000.0,034.2,027.4,006.8,0000.0,0003.70,0022.81,0001.48
2024-04-05 23:54:00,SystemResetWarning,0813.9,4.99,000.00,025.6,024.7,000.0,034.2,027.4,006.8,0000.0,0003.70,0022.10,0001.48
2024-04-05 23:55:00,SystemResetWarning,0813.9,5.01,000.00,025.6,024.7,000.0,034.2,027.4,007.1,0000.0,0003.71,0022.86,0001.49
2024-04-05 23:56:00,SystemResetWarning,0813.9,5.02,000.00,025.7,024.8,000.0,034.2,027.5,007.4,0000.0,0003.66,0022.30,0001.47
2024-04-05 23:57:00,SystemResetWarning,0813.9,4.99,000.00,025.7,024.9,000.0,034.2,027.5,006.8,0000.0,0003.66,0022.80,0001.47
2024-04-05 23:58:00,SystemResetWarning,0813.9,4.99,000.00,025.7,024.9,000.0,034.2,027.5,006.6,0000.0,0003.70,0023.04,0001.47
2024-04-05 23:59:00,SystemResetWarning,0814.0,5.00,000.00,025.7,025.0,000.0,034.2,027.6,006.9,0000.0,0003.66,0024.51,0001.49
